Weather History for North Myrtle Beach, SC

Change the Weather History Date:

Wednesday, December 12, 2012

  Actual Average Record
Temperature  
Mean Temperature 53 °F 49 °F  
Max Temperature 62 °F 59 °F 78 °F (2007)
Min Temperature 43 °F 40 °F 25 °F (1988)
Degree Days  
Heating Degree Days 12 16  
Month to date heating degree days 73 173  
Since 1 July heating degree days 571 534  
Cooling Degree Days 0 0  
Month to date cooling degree days 0 0  
Year to date cooling degree days 2096 1899  
Growing Degree Days 2 (Base 50)    
Moisture  
Dew Point 49 °F    
Average Humidity 95    
Maximum Humidity 100    
Minimum Humidity 89    
Precipitation  
Precipitation 0.44 in 0.12 in 0.44 in (2012)
Month to date precipitation 0.60 1.43  
Year to date precipitation 36.16 49.98  
Sea Level Pressure  
Sea Level Pressure 30.15 in    
Wind  
Wind Speed 10 mph (NNE)    
Max Wind Speed 22 mph    
Max Gust Speed 29 mph    
Visibility 6 miles    
Events Rain    
T = Trace of Precipitation, MM = Missing Value Source: NWS Daily Summary

Daily Weather History Graph

Daily Weather History Graph

Search for Another Location

Airport:

Trip Planner

Search our weather history database for the weather conditions in past years. The results will help you decide how hot, cold, wet, or windy it might be!

Date:

Astronomy

Dec. 12, 2012 Rise Set
Actual Time 7:10 AM EST 5:07 PM EST
Civil Twilight 6:43 AM EST 5:34 PM EST
Nautical Twilight 6:11 AM EST 6:05 PM EST
Astronomical Twilight 5:41 AM EST 6:36 PM EST
Moon 6:14 AM EST (12/12) 4:41 PM EST (12/12)
Length of Visible Light 10h 51m
Length of Day
9h 56m
Waning Crescent, 1% of the Moon is Illuminated
Dec 12
Waning Crescent
Dec 13
New
Dec 20
First Quarter
Dec 28
Full
Jan 4
Last Quarter

Hourly Weather History & Observations

Time (EST) Temp. Windchill Dew Point Humidity Pressure Visibility Wind Dir Wind Speed Gust Speed Precip Events Conditions
12:17 AM 62.6 °F - 60.8 °F 94% 30.06 in 8.0 mi Calm Calm - 0.00 in   Mostly Cloudy
12:53 AM 61.0 °F - 59.0 °F 93% 30.05 in 7.0 mi ESE 4.6 mph - 0.00 in   Partly Cloudy
1:09 AM 60.8 °F - 59.0 °F 94% 30.05 in 8.0 mi East 3.5 mph - N/A   Mostly Cloudy
1:53 AM 61.0 °F - 59.0 °F 93% 30.09 in 7.0 mi NW 4.6 mph - N/A   Overcast
2:04 AM 60.8 °F - 59.0 °F 94% 30.09 in 7.0 mi NW 8.1 mph - N/A   Overcast
2:53 AM 57.0 °F - 55.0 °F 93% 30.09 in 10.0 mi ENE 3.5 mph - 0.00 in Rain Light Rain
3:34 AM 57.2 °F - 55.4 °F 94% 30.09 in 9.0 mi NE 8.1 mph - 0.00 in   Overcast
3:43 AM 57.2 °F - 55.4 °F 94% 30.09 in 9.0 mi NNE 5.8 mph - 0.00 in   Overcast
3:53 AM 57.0 °F - 55.9 °F 96% 30.10 in 7.0 mi North 4.6 mph - 0.00 in   Overcast
4:11 AM 57.2 °F - 55.4 °F 94% 30.10 in 3.0 mi NNW 5.8 mph - N/A   Overcast
4:20 AM 57.2 °F - 55.4 °F 94% 30.10 in 2.0 mi NNE 4.6 mph - N/A   Overcast
4:46 AM 57.2 °F - 55.4 °F 94% 30.09 in 3.0 mi NE 5.8 mph - N/A   Overcast
4:53 AM 57.0 °F - 55.9 °F 96% 30.09 in 3.0 mi NNE 4.6 mph - N/A   Overcast
5:44 AM 55.4 °F - 53.6 °F 94% 30.11 in 2.5 mi NNE 8.1 mph - N/A   Overcast
5:53 AM 54.0 °F - 53.1 °F 97% 30.12 in 3.0 mi NNE 10.4 mph - N/A   Overcast
6:00 AM 53.6 °F - 53.6 °F 100% 30.12 in 2.0 mi NNE 8.1 mph - N/A   Overcast
6:53 AM 52.0 °F - 51.1 °F 97% 30.14 in 2.0 mi NNE 8.1 mph - N/A   Overcast
7:53 AM 51.1 °F - 48.9 °F 92% 30.17 in 2.5 mi NNE 9.2 mph - N/A   Overcast
8:02 AM 51.8 °F - 50.0 °F 94% 30.16 in 3.0 mi NE 9.2 mph - N/A   Overcast
8:53 AM 51.1 °F - 48.9 °F 92% 30.19 in 4.0 mi NNE 6.9 mph - N/A   Overcast
9:13 AM 50.0 °F - 48.2 °F 94% 30.20 in 5.0 mi NE 11.5 mph - N/A   Overcast
9:53 AM 50.0 °F - 48.0 °F 93% 30.21 in 5.0 mi NNE 9.2 mph - 0.00 in   Overcast
10:53 AM 48.9 °F - 46.9 °F 93% 30.19 in 8.0 mi NNE 10.4 mph 20.7 mph 0.00 in   Overcast
11:53 AM 48.9 °F - 46.0 °F 90% 30.18 in 10.0 mi NNE 12.7 mph - 0.00 in   Overcast
12:53 PM 48.9 °F - 46.9 °F 93% 30.17 in 9.0 mi NNE 11.5 mph - 0.00 in   Overcast
1:53 PM 48.0 °F - 46.0 °F 93% 30.15 in 9.0 mi NE 11.5 mph - 0.00 in Rain Light Rain
2:53 PM 48.0 °F - 46.0 °F 93% 30.16 in 4.0 mi NNE 10.4 mph 18.4 mph 0.00 in Rain Light Rain
3:53 PM 46.9 °F - 45.0 °F 93% 30.19 in 5.0 mi North 12.7 mph 20.7 mph 0.08 in Rain Light Rain
4:53 PM 46.0 °F 40.2 °F 44.1 °F 93% 30.22 in 5.0 mi NNE 12.7 mph 18.4 mph 0.04 in Rain Rain
5:06 PM 44.6 °F 38.1 °F 42.8 °F 93% 30.21 in 5.0 mi NNE 13.8 mph 19.6 mph 0.04 in Rain Rain
5:53 PM 45.0 °F 37.9 °F 42.1 °F 90% 30.20 in 8.0 mi NNE 16.1 mph 26.5 mph 0.10 in Rain Light Rain
6:53 PM 45.0 °F 37.9 °F 42.1 °F 90% 30.22 in 7.0 mi NE 16.1 mph 20.7 mph 0.03 in Rain Light Rain
7:34 PM 44.6 °F 37.8 °F 42.8 °F 93% 30.19 in 9.0 mi NE 15.0 mph 20.7 mph 0.01 in Rain Light Rain
7:41 PM 44.6 °F 38.8 °F 42.8 °F 93% 30.19 in 8.0 mi NE 11.5 mph - 0.01 in Rain Light Rain
7:53 PM 44.1 °F 37.4 °F 42.1 °F 93% 30.19 in 9.0 mi NE 13.8 mph - 0.01 in Rain Light Rain
8:17 PM 44.6 °F 40.2 °F 42.8 °F 93% 30.20 in 10.0 mi NNE 8.1 mph 18.4 mph 0.00 in Rain Light Rain
8:53 PM 44.1 °F 37.1 °F 42.1 °F 93% 30.18 in 8.0 mi NE 15.0 mph - 0.03 in Rain Light Rain
9:53 PM 43.0 °F 36.8 °F 41.0 °F 93% 30.22 in 4.0 mi NNE 11.5 mph 17.3 mph 0.03 in Rain Rain
10:53 PM 43.0 °F 36.4 °F 41.0 °F 93% 30.19 in 8.0 mi NNE 12.7 mph 19.6 mph 0.12 in Rain Light Rain
11:45 PM 42.8 °F 36.6 °F 41.0 °F 93% 30.20 in 10.0 mi NNE 11.5 mph - 0.00 in Rain Light Rain
11:53 PM 43.0 °F 36.8 °F 41.0 °F 93% 30.19 in 10.0 mi NNE 11.5 mph 18.4 mph 0.00 in Rain Light Rain